CEB557 RPLL-RPVM

Flight info

Callsign CEB557
Flight time 1h 8m
Altitude 35000
Route IPATA2V IPATA W25 BATAY BATAY3P
Aircraft A20N/M-SDE2E3FGHIRWXY/LB1

Departure

Time 2026-05-07 15:30
Airport Ninoy Aquino International Airport (RPLL)

Arrival

Time 2026-05-07 16:38
Airport Mactan Cebu International Airport (RPVM)
Time Latitude Longitude Altitude Speed Heading
2026-05-07 15:03 14.52243 121.00951 82 ft 0 kts 44°
2026-05-07 15:20 14.52235 121.00944 82 ft 2 kts 44°
2026-05-07 15:20 14.52225 121.00933 82 ft 2 kts 45°
2026-05-07 15:20 14.52214 121.00922 82 ft 2 kts 44°
2026-05-07 15:20 14.52203 121.00911 82 ft 2 kts 45°
2026-05-07 15:21 14.52192 121.00899 82 ft 2 kts 44°
2026-05-07 15:21 14.52181 121.00889 82 ft 2 kts 45°
2026-05-07 15:21 14.52170 121.00877 82 ft 1 kts 45°
2026-05-07 15:21 14.52160 121.00870 82 ft 2 kts
2026-05-07 15:22 14.52147 121.00874 82 ft 1 kts 316°
2026-05-07 15:22 14.52142 121.00880 82 ft 0 kts 314°
2026-05-07 15:22 14.52143 121.00879 82 ft 0 kts 314°
2026-05-07 15:24 14.52154 121.00868 82 ft 4 kts 315°
2026-05-07 15:24 14.52187 121.00834 82 ft 8 kts 315°
2026-05-07 15:25 14.52239 121.00781 82 ft 12 kts 315°
2026-05-07 15:25 14.52307 121.00710 82 ft 14 kts 315°
2026-05-07 15:25 14.52383 121.00631 82 ft 15 kts 315°
2026-05-07 15:25 14.52452 121.00562 82 ft 11 kts 315°
2026-05-07 15:26 14.52499 121.00500 82 ft 9 kts 273°
2026-05-07 15:26 14.52459 121.00449 82 ft 9 kts 224°
2026-05-07 15:26 14.52405 121.00394 82 ft 9 kts 220°
2026-05-07 15:26 14.52365 121.00404 82 ft 3 kts 134°
2026-05-07 15:27 14.52360 121.00408 82 ft 0 kts 134°
2026-05-07 15:29 14.52261 121.00512 82 ft 58 kts 135°
2026-05-07 15:29 14.51739 121.01050 83 ft 133 kts 135°
2026-05-07 15:29 14.50902 121.01902 566 ft 150 kts 134°
2026-05-07 15:30 14.50056 121.02773 1347 ft 149 kts 130°
2026-05-07 15:30 14.49241 121.03616 2042 ft 153 kts 130°
2026-05-07 15:30 14.48417 121.04480 2509 ft 169 kts 130°
2026-05-07 15:30 14.47550 121.05392 2867 ft 192 kts 130°
2026-05-07 15:31 14.46534 121.06454 2988 ft 220 kts 131°
2026-05-07 15:31 14.45338 121.07698 2951 ft 254 kts 132°
2026-05-07 15:31 14.44070 121.09019 2971 ft 259 kts 130°
2026-05-07 15:31 14.42891 121.10469 3241 ft 268 kts 123°
2026-05-07 15:32 14.41856 121.12049 4219 ft 268 kts 120°
2026-05-07 15:32 14.40854 121.13648 5262 ft 267 kts 120°
2026-05-07 15:32 14.39855 121.15257 6145 ft 271 kts 120°
2026-05-07 15:32 14.38835 121.16902 7054 ft 275 kts 120°
2026-05-07 15:33 14.37819 121.18538 7964 ft 277 kts 120°
2026-05-07 15:33 14.36785 121.20203 8828 ft 279 kts 120°
2026-05-07 15:33 14.35731 121.21900 9648 ft 282 kts 120°
2026-05-07 15:33 14.34674 121.23601 10407 ft 286 kts 121°
2026-05-07 15:34 14.33577 121.25368 10865 ft 302 kts 121°
2026-05-07 15:34 14.32437 121.27200 11425 ft 311 kts 121°
2026-05-07 15:34 14.31261 121.29090 12141 ft 315 kts 121°
2026-05-07 15:34 14.30068 121.31004 12846 ft 318 kts 122°
2026-05-07 15:35 14.28868 121.32930 13481 ft 323 kts 122°
2026-05-07 15:35 14.27659 121.34866 14112 ft 327 kts 122°
2026-05-07 15:35 14.26434 121.36827 14738 ft 330 kts 121°
2026-05-07 15:35 14.25184 121.38831 15341 ft 334 kts 121°
2026-05-07 15:36 14.23925 121.40848 15927 ft 338 kts 121°
2026-05-07 15:36 14.22646 121.42895 16509 ft 342 kts 121°
2026-05-07 15:36 14.21357 121.44958 17065 ft 345 kts 121°
2026-05-07 15:36 14.20043 121.47062 17625 ft 348 kts 121°
2026-05-07 15:37 14.18737 121.49152 18173 ft 352 kts 121°
2026-05-07 15:37 14.17411 121.51277 18715 ft 355 kts 121°
2026-05-07 15:37 14.16075 121.53416 19254 ft 358 kts 121°
2026-05-07 15:37 14.14721 121.55581 19790 ft 361 kts 121°
2026-05-07 15:38 14.13355 121.57767 20327 ft 364 kts 121°
2026-05-07 15:38 14.11979 121.59965 20859 ft 367 kts 121°
2026-05-07 15:38 14.10534 121.62148 21387 ft 371 kts 126°
2026-05-07 15:38 14.08836 121.64137 21907 ft 375 kts 134°
2026-05-07 15:39 14.06798 121.65959 22440 ft 379 kts 141°
2026-05-07 15:39 14.04603 121.67651 22979 ft 383 kts 143°
2026-05-07 15:39 14.02452 121.69273 23482 ft 386 kts 143°
2026-05-07 15:39 14.00301 121.70893 23977 ft 389 kts 143°
2026-05-07 15:40 13.98102 121.72559 24472 ft 393 kts 143°
2026-05-07 15:40 13.95891 121.74239 24953 ft 397 kts 143°
2026-05-07 15:40 13.93658 121.75939 25428 ft 400 kts 143°
2026-05-07 15:40 13.91430 121.77636 25898 ft 403 kts 143°
2026-05-07 15:41 13.89097 121.79414 26376 ft 406 kts 143°
2026-05-07 15:41 13.86787 121.81173 26832 ft 409 kts 143°
2026-05-07 15:41 13.84479 121.82920 27262 ft 413 kts 143°
2026-05-07 15:41 13.82167 121.84664 27669 ft 416 kts 143°
2026-05-07 15:42 13.79822 121.86432 28079 ft 419 kts 143°
2026-05-07 15:42 13.77454 121.88216 28471 ft 422 kts 143°
2026-05-07 15:42 13.75092 121.89998 28858 ft 424 kts 144°
2026-05-07 15:42 13.72692 121.91808 29243 ft 427 kts 144°
2026-05-07 15:43 13.70304 121.93609 29620 ft 428 kts 144°
2026-05-07 15:43 13.67887 121.95431 29989 ft 430 kts 144°
2026-05-07 15:43 13.65467 121.97255 30342 ft 431 kts 144°
2026-05-07 15:43 13.63061 121.99068 30677 ft 433 kts 145°
2026-05-07 15:44 13.60600 122.00923 31008 ft 434 kts 145°
2026-05-07 15:44 13.58178 122.02747 31317 ft 435 kts 145°
2026-05-07 15:44 13.55715 122.04600 31626 ft 437 kts 145°
2026-05-07 15:44 13.53241 122.06462 31935 ft 438 kts 146°
2026-05-07 15:45 13.50742 122.08344 32339 ft 437 kts 146°
2026-05-07 15:45 13.48284 122.10196 32815 ft 434 kts 146°
2026-05-07 15:45 13.45843 122.12031 33283 ft 433 kts 146°
2026-05-07 15:45 13.43412 122.13856 33655 ft 433 kts 146°
2026-05-07 15:46 13.38529 122.17525 34314 ft 436 kts 146°
2026-05-07 15:46 13.36088 122.19358 34637 ft 437 kts 146°
2026-05-07 15:46 13.33613 122.21217 34868 ft 440 kts 146°
2026-05-07 15:47 13.31119 122.23090 34866 ft 440 kts 146°
2026-05-07 15:47 13.26098 122.26859 34859 ft 440 kts 146°
2026-05-07 15:48 13.21079 122.30624 34860 ft 440 kts 146°
2026-05-07 15:48 13.16024 122.34417 34859 ft 440 kts 146°
2026-05-07 15:49 13.10949 122.38220 34858 ft 440 kts 146°
2026-05-07 15:49 13.05896 122.42007 34858 ft 439 kts 146°
2026-05-07 15:50 13.00935 122.45721 34858 ft 439 kts 146°
2026-05-07 15:50 12.95868 122.49513 34858 ft 439 kts 146°
2026-05-07 15:51 12.90808 122.53297 34857 ft 439 kts 146°
2026-05-07 15:51 12.85517 122.57253 34856 ft 439 kts 146°
2026-05-07 15:52 12.80506 122.60998 34854 ft 439 kts 146°
2026-05-07 15:52 12.75491 122.64744 34850 ft 440 kts 146°
2026-05-07 15:53 12.70420 122.68530 34849 ft 440 kts 146°
2026-05-07 15:53 12.65361 122.72305 34846 ft 440 kts 146°
2026-05-07 15:54 12.60298 122.76082 34844 ft 440 kts 146°
2026-05-07 15:54 12.55260 122.79837 34844 ft 440 kts 146°
2026-05-07 15:55 12.50206 122.83604 34844 ft 441 kts 146°
2026-05-07 15:55 12.45125 122.87389 34846 ft 441 kts 146°
2026-05-07 15:56 12.40122 122.91115 34844 ft 441 kts 146°
2026-05-07 15:56 12.35045 122.94895 34841 ft 441 kts 146°
2026-05-07 15:57 12.29923 122.98701 34845 ft 441 kts 146°
2026-05-07 15:57 12.24896 123.02432 34844 ft 440 kts 146°
2026-05-07 15:58 12.19829 123.06192 34856 ft 441 kts 146°
2026-05-07 15:58 12.14835 123.09899 34860 ft 441 kts 146°
2026-05-07 15:59 12.09746 123.13676 34860 ft 441 kts 146°
2026-05-07 15:59 12.04620 123.17478 34857 ft 440 kts 146°
2026-05-07 16:00 11.99556 123.21233 34864 ft 440 kts 146°
2026-05-07 16:00 11.94451 123.25016 34869 ft 440 kts 146°
2026-05-07 16:01 11.89387 123.28768 34866 ft 440 kts 146°
2026-05-07 16:01 11.84185 123.32619 34856 ft 440 kts 146°
2026-05-07 16:02 11.79214 123.36298 34850 ft 441 kts 146°
2026-05-07 16:02 11.74152 123.40043 34851 ft 441 kts 146°
2026-05-07 16:02 11.71630 123.41908 34375 ft 446 kts 146°
2026-05-07 16:03 11.69060 123.43806 33421 ft 451 kts 146°
2026-05-07 16:03 11.66442 123.45739 32618 ft 450 kts 145°
2026-05-07 16:03 11.63875 123.47634 31920 ft 449 kts 145°
2026-05-07 16:03 11.61286 123.49546 31243 ft 447 kts 145°
2026-05-07 16:04 11.58692 123.51462 30710 ft 443 kts 145°
2026-05-07 16:04 11.56103 123.53375 30182 ft 438 kts 144°
2026-05-07 16:04 11.53658 123.55181 29677 ft 434 kts 144°
2026-05-07 16:04 11.51208 123.56990 29170 ft 430 kts 144°
2026-05-07 16:05 11.48773 123.58786 28652 ft 426 kts 144°
2026-05-07 16:05 11.46324 123.60593 28129 ft 423 kts 144°
2026-05-07 16:05 11.43898 123.62382 27617 ft 419 kts 143°
2026-05-07 16:05 11.41488 123.64159 27106 ft 416 kts 143°
2026-05-07 16:06 11.39097 123.65922 26604 ft 412 kts 143°
2026-05-07 16:06 11.36661 123.67718 26102 ft 408 kts 143°
2026-05-07 16:06 11.34366 123.69411 25628 ft 405 kts 143°
2026-05-07 16:06 11.32061 123.71111 25151 ft 401 kts 143°
2026-05-07 16:07 11.29752 123.72812 24668 ft 397 kts 142°
2026-05-07 16:07 11.27449 123.74509 24174 ft 394 kts 142°
2026-05-07 16:07 11.25216 123.76154 23699 ft 391 kts 142°
2026-05-07 16:07 11.23007 123.77783 23225 ft 388 kts 142°
2026-05-07 16:08 11.20813 123.79400 22755 ft 385 kts 142°
2026-05-07 16:08 11.18614 123.81018 22275 ft 382 kts 141°
2026-05-07 16:08 11.16458 123.82596 21797 ft 380 kts 143°
2026-05-07 16:08 11.14066 123.83747 21289 ft 384 kts 164°
2026-05-07 16:09 11.11342 123.83881 20808 ft 389 kts 186°
2026-05-07 16:09 11.08727 123.83219 20347 ft 388 kts 194°
2026-05-07 16:09 11.06104 123.82443 19859 ft 387 kts 194°
2026-05-07 16:09 11.03493 123.81677 19378 ft 385 kts 193°
2026-05-07 16:10 11.00929 123.80938 18911 ft 383 kts 193°
2026-05-07 16:10 10.98315 123.80196 18431 ft 381 kts 193°
2026-05-07 16:10 10.95764 123.79478 17957 ft 380 kts 193°
2026-05-07 16:10 10.93211 123.78762 17480 ft 378 kts 193°
2026-05-07 16:11 10.90645 123.78045 17016 ft 376 kts 193°
2026-05-07 16:11 10.88001 123.77305 16548 ft 373 kts 193°
2026-05-07 16:11 10.85396 123.76577 16093 ft 370 kts 193°
2026-05-07 16:11 10.82852 123.75867 15643 ft 367 kts 193°
2026-05-07 16:12 10.80341 123.75165 15196 ft 364 kts 193°
2026-05-07 16:12 10.77895 123.74483 14759 ft 362 kts 193°
2026-05-07 16:12 10.75483 123.73813 14327 ft 359 kts 193°
2026-05-07 16:12 10.73069 123.73141 13892 ft 357 kts 192°
2026-05-07 16:13 10.70682 123.72475 13458 ft 354 kts 192°
2026-05-07 16:13 10.68312 123.71814 13032 ft 351 kts 192°
2026-05-07 16:13 10.65979 123.71164 12623 ft 348 kts 192°
2026-05-07 16:13 10.63629 123.70509 12198 ft 346 kts 192°
2026-05-07 16:14 10.61313 123.69864 11776 ft 343 kts 192°
2026-05-07 16:14 10.59031 123.69229 11360 ft 340 kts 192°
2026-05-07 16:14 10.56732 123.68589 10947 ft 337 kts 192°
2026-05-07 16:14 10.54478 123.67961 10539 ft 335 kts 192°
2026-05-07 16:15 10.52246 123.67339 10156 ft 331 kts 192°
2026-05-07 16:15 10.50068 123.66731 10011 ft 318 kts 192°
2026-05-07 16:15 10.47952 123.66138 9821 ft 308 kts 191°
2026-05-07 16:15 10.45888 123.65565 9451 ft 305 kts 191°
2026-05-07 16:16 10.43852 123.65000 9090 ft 303 kts 191°
2026-05-07 16:16 10.41797 123.64430 8723 ft 300 kts 191°
2026-05-07 16:16 10.39787 123.63872 8363 ft 298 kts 191°
2026-05-07 16:16 10.37796 123.63317 8008 ft 296 kts 191°
2026-05-07 16:17 10.35812 123.62849 7636 ft 290 kts 180°
2026-05-07 16:17 10.33880 123.63206 7258 ft 274 kts 148°
2026-05-07 16:17 10.32438 123.64367 6931 ft 264 kts 130°
2026-05-07 16:17 10.31152 123.65739 6595 ft 262 kts 130°
2026-05-07 16:18 10.29899 123.67062 6272 ft 259 kts 130°
2026-05-07 16:18 10.28638 123.68373 5950 ft 257 kts 130°
2026-05-07 16:18 10.27377 123.69669 5623 ft 255 kts 130°
2026-05-07 16:18 10.26144 123.70929 5303 ft 253 kts 130°
2026-05-07 16:19 10.24881 123.72215 4968 ft 252 kts 130°
2026-05-07 16:19 10.23650 123.73469 4654 ft 250 kts 130°
2026-05-07 16:19 10.22430 123.74709 4344 ft 248 kts 130°
2026-05-07 16:19 10.21211 123.75948 4024 ft 246 kts 130°
2026-05-07 16:20 10.19987 123.77191 3697 ft 244 kts 130°
2026-05-07 16:20 10.18768 123.78428 3418 ft 239 kts 130°
2026-05-07 16:20 10.17568 123.79643 3227 ft 231 kts 130°
2026-05-07 16:20 10.16475 123.80814 3143 ft 216 kts 120°
2026-05-07 16:21 10.16057 123.82181 3054 ft 196 kts 86°
2026-05-07 16:21 10.16437 123.83493 2993 ft 200 kts 59°
2026-05-07 16:21 10.17373 123.84544 2914 ft 198 kts 47°
2026-05-07 16:21 10.18341 123.85487 2865 ft 186 kts 47°
2026-05-07 16:22 10.19245 123.86377 2771 ft 179 kts 48°
2026-05-07 16:22 10.20134 123.87261 2626 ft 175 kts 48°
2026-05-07 16:22 10.20974 123.88098 2527 ft 163 kts 49°
2026-05-07 16:22 10.21763 123.88889 2280 ft 156 kts 49°
2026-05-07 16:23 10.22527 123.89653 2010 ft 146 kts 49°
2026-05-07 16:23 10.23212 123.90340 1820 ft 132 kts 49°
2026-05-07 16:23 10.23851 123.90981 1634 ft 128 kts 49°
2026-05-07 16:23 10.24483 123.91619 1474 ft 127 kts 48°
2026-05-07 16:24 10.25114 123.92255 1308 ft 126 kts 48°
2026-05-07 16:24 10.25782 123.92927 1131 ft 126 kts 47°
2026-05-07 16:24 10.26451 123.93600 952 ft 126 kts 47°
2026-05-07 16:24 10.27081 123.94239 786 ft 125 kts 47°
2026-05-07 16:25 10.27712 123.94880 599 ft 125 kts 46°
2026-05-07 16:25 10.28341 123.95512 415 ft 125 kts 45°
2026-05-07 16:25 10.28979 123.96159 245 ft 124 kts 45°
2026-05-07 16:25 10.29607 123.96792 98 ft 123 kts 44°
2026-05-07 16:26 10.30272 123.97451 88 ft 120 kts 45°
2026-05-07 16:26 10.30953 123.98099 679 ft 131 kts 46°
2026-05-07 16:26 10.31602 123.98745 1481 ft 130 kts 48°
2026-05-07 16:26 10.32016 123.99159 1977 ft 129 kts 49°
2026-05-07 16:27 10.32561 124.00260 2548 ft 148 kts 90°
2026-05-07 16:27 10.32150 124.01294 3019 ft 174 kts 127°
2026-05-07 16:27 10.30991 124.01878 3515 ft 207 kts 166°
2026-05-07 16:27 10.29501 124.01951 3807 ft 220 kts 171°
2026-05-07 16:28 10.27911 124.02033 3967 ft 237 kts 171°
2026-05-07 16:28 10.26149 124.02144 3970 ft 257 kts 171°
2026-05-07 16:28 10.24326 124.02252 3968 ft 260 kts 172°
2026-05-07 16:28 10.22495 124.02359 3969 ft 261 kts 171°
2026-05-07 16:29 10.20669 124.02468 3967 ft 261 kts 171°
2026-05-07 16:29 10.18843 124.02371 3951 ft 269 kts 193°
2026-05-07 16:29 10.17219 124.01336 3956 ft 279 kts 223°
2026-05-07 16:29 10.15927 123.99839 3961 ft 281 kts 227°
2026-05-07 16:30 10.14648 123.98302 3966 ft 281 kts 227°
2026-05-07 16:30 10.13365 123.96787 3969 ft 280 kts 226°
2026-05-07 16:30 10.12052 123.95269 3966 ft 281 kts 226°
2026-05-07 16:30 10.10728 123.93761 3962 ft 280 kts 225°
2026-05-07 16:31 10.09413 123.92269 3965 ft 280 kts 225°
2026-05-07 16:31 10.08110 123.90783 3963 ft 281 kts 229°
2026-05-07 16:31 10.07207 123.88994 3946 ft 284 kts 260°
2026-05-07 16:31 10.07369 123.87040 3770 ft 274 kts 296°
2026-05-07 16:32 10.08546 123.85585 3585 ft 251 kts 334°
2026-05-07 16:32 10.10114 123.84829 3371 ft 241 kts 343°
2026-05-07 16:32 10.11677 123.84122 3134 ft 238 kts 340°
2026-05-07 16:32 10.13142 123.83346 3100 ft 225 kts 338°
2026-05-07 16:33 10.14577 123.82818 3042 ft 211 kts
2026-05-07 16:33 10.15959 123.83114 2990 ft 196 kts 35°
2026-05-07 16:33 10.16962 123.83955 2945 ft 179 kts 50°
2026-05-07 16:33 10.17817 123.84853 2916 ft 177 kts 50°
2026-05-07 16:34 10.18678 123.85753 2861 ft 177 kts 50°
2026-05-07 16:34 10.19543 123.86643 2806 ft 170 kts 49°
2026-05-07 16:34 10.20344 123.87453 2674 ft 159 kts 49°
2026-05-07 16:34 10.21116 123.88231 2450 ft 154 kts 49°
2026-05-07 16:35 10.21859 123.88980 2190 ft 144 kts 49°
2026-05-07 16:35 10.22550 123.89673 1981 ft 132 kts 49°
2026-05-07 16:35 10.23198 123.90324 1822 ft 128 kts 49°
2026-05-07 16:35 10.23822 123.90954 1649 ft 127 kts 49°
2026-05-07 16:36 10.24451 123.91587 1482 ft 127 kts 49°
2026-05-07 16:36 10.25086 123.92227 1311 ft 126 kts 48°
2026-05-07 16:36 10.25723 123.92870 1144 ft 126 kts 47°
2026-05-07 16:36 10.26358 123.93507 976 ft 125 kts 47°
2026-05-07 16:37 10.26985 123.94155 799 ft 125 kts 47°
2026-05-07 16:37 10.27629 123.94791 613 ft 125 kts 46°
2026-05-07 16:37 10.28260 123.95429 446 ft 124 kts 46°
2026-05-07 16:37 10.28892 123.96069 293 ft 124 kts 45°
2026-05-07 16:38 10.29565 123.96745 121 ft 123 kts 44°
2026-05-07 16:38 10.30239 123.97425 46 ft 110 kts 44°
2026-05-07 16:38 10.30670 123.97858 46 ft 50 kts 45°
2026-05-07 16:38 10.30901 123.98088 45 ft 43 kts 44°
2026-05-07 16:39 10.31104 123.98277 46 ft 33 kts 33°
2026-05-07 16:39 10.31269 123.98341 45 ft 19 kts 17°
2026-05-07 16:39 10.31334 123.98354 45 ft 6 kts 358°
2026-05-07 16:39 10.31378 123.98337 46 ft 7 kts 317°
2026-05-07 16:40 10.31417 123.98296 46 ft 8 kts 314°
2026-05-07 16:40 10.31462 123.98249 46 ft 9 kts 315°
2026-05-07 16:40 10.31514 123.98197 46 ft 11 kts 315°
2026-05-07 16:40 10.31557 123.98153 46 ft 6 kts 308°
2026-05-07 16:41 10.31567 123.98109 46 ft 6 kts 240°
2026-05-07 16:41 10.31529 123.98071 46 ft 8 kts 225°
2026-05-07 16:41 10.31480 123.98021 46 ft 10 kts 225°
2026-05-07 16:41 10.31424 123.97965 46 ft 11 kts 225°
2026-05-07 16:42 10.31364 123.97904 46 ft 6 kts 228°
2026-05-07 16:42 10.31370 123.97879 46 ft 5 kts 322°
2026-05-07 16:42 10.31395 123.97855 46 ft 5 kts 311°
2026-05-07 16:42 10.31405 123.97843 46 ft 2 kts 311°
2026-05-07 16:43 10.31411 123.97836 46 ft 0 kts 312°